Time,TemperatureF,DewpointF,PressureIn,WindDirection,WindDirectionDegrees,WindSpeedMPH,WindSpeedGustMPH,Humidity,HourlyPrecipIn,Conditions,Clouds,dailyrainin,SolarRadiationWatts/m^2,SoftwareType,DateUTC
2013-03-24 00:00:00,31.8,20.7,30.00,East,86,0.0,2.0,63,0.00,,CLR,0.00,0.00,VWS V14.01,2013-03-24 04:00:00,
2013-03-24 00:06:00,31.9,20.8,30.00,NE,47,1.0,2.0,63,0.00,,CLR,0.00,0.00,VWS V14.01,2013-03-24 04:06:00,
2013-03-24 00:11:00,32.1,20.6,30.00,East,95,1.0,3.0,62,0.00,,CLR,0.00,0.00,VWS V14.01,2013-03-24 04:11:00,
2013-03-24 00:16:00,32.4,20.9,29.99,ESE,113,1.0,2.0,62,0.00,,CLR,0.00,0.00,VWS V14.01,2013-03-24 04:16:00,
2013-03-24 00:21:00,32.5,20.6,29.99,East,86,1.0,2.0,61,0.00,,CLR,0.00,0.00,VWS V14.01,2013-03-24 04:21:00,
2013-03-24 00:26:00,32.7,20.4,29.99,East,93,0.0,2.0,60,0.00,,CLR,0.00,0.00,VWS V14.01,2013-03-24 04:26:00,
2013-03-24 00:31:00,32.8,20.5,30.00,ESE,106,1.0,2.0,60,0.00,,CLR,0.00,0.00,VWS V14.01,2013-03-24 04:31:00,
2013-03-24 00:37:00,33.0,20.6,30.00,NE,56,0.0,1.0,60,0.00,,CLR,0.00,0.00,VWS V14.01,2013-03-24 04:37:00,
2013-03-24 00:42:00,32.7,20.8,30.00,NE,56,0.0,1.0,61,0.00,,CLR,0.00,0.00,VWS V14.01,2013-03-24 04:42:00,
2013-03-24 00:47:00,32.1,20.6,29.99,NE,56,0.0,0.0,62,0.00,,CLR,0.00,0.00,VWS V14.01,2013-03-24 04:47:00,
2013-03-24 00:52:00,31.8,20.3,29.99,ESE,116,0.0,1.0,62,0.00,,CLR,0.00,0.00,VWS V14.01,2013-03-24 04:52:00,
2013-03-24 00:57:00,30.9,19.8,29.99,SSE,151,0.0,3.0,63,0.00,,CLR,0.00,0.00,VWS V14.01,2013-03-24 04:57:00,
2013-03-24 01:02:00,30.0,19.7,29.97,SSE,157,0.0,0.0,65,0.00,,CLR,0.00,0.00,VWS V14.01,2013-03-24 05:02:00,
2013-03-24 01:07:00,30.0,20.0,29.97,SSE,157,0.0,2.0,66,0.00,,CLR,0.00,0.00,VWS V14.01,2013-03-24 05:07:00,
2013-03-24 01:12:00,29.6,19.6,29.97,SSE,157,0.0,0.0,66,0.00,,CLR,0.00,0.00,VWS V14.01,2013-03-24 05:12:00,
2013-03-24 01:18:00,29.4,19.8,29.98,SSE,157,0.0,0.0,67,0.00,,CLR,0.00,0.00,VWS V14.01,2013-03-24 05:18:00,
2013-03-24 01:23:00,29.6,20.0,29.98,SSE,157,0.0,0.0,67,0.00,,CLR,0.00,0.00,VWS V14.01,2013-03-24 05:23:00,
2013-03-24 01:28:00,29.6,20.0,29.98,SSE,157,0.0,0.0,67,0.00,,CLR,0.00,0.00,VWS V14.01,2013-03-24 05:28:00,
2013-03-24 01:33:00,29.0,19.8,29.98,South,176,1.0,2.0,68,0.00,,CLR,0.00,0.00,VWS V14.01,2013-03-24 05:33:00,
2013-03-24 01:38:00,28.7,19.5,29.98,South,176,0.0,2.0,68,0.00,,CLR,0.00,0.00,VWS V14.01,2013-03-24 05:38:00,
2013-03-24 01:43:00,28.5,19.6,29.98,South,176,0.0,0.0,69,0.00,,CLR,0.00,0.00,VWS V14.01,2013-03-24 05:43:00,
2013-03-24 01:48:00,28.5,19.6,29.98,South,176,0.0,0.0,69,0.00,,CLR,0.00,0.00,VWS V14.01,2013-03-24 05:48:00,
2013-03-24 01:53:00,28.4,19.5,29.98,SSW,209,1.0,2.0,69,0.00,,CLR,0.00,0.00,VWS V14.01,2013-03-24 05:53:00,
2013-03-24 01:58:00,28.4,19.5,29.98,SSW,209,0.0,2.0,69,0.00,,CLR,0.00,0.00,VWS V14.01,2013-03-24 05:58:00,
2013-03-24 02:04:00,28.3,19.8,29.99,SSW,209,0.0,0.0,70,0.00,,CLR,0.00,0.00,VWS V14.01,2013-03-24 06:04:00,
2013-03-24 02:09:00,28.3,19.8,29.99,SSW,209,0.0,0.0,70,0.00,,CLR,0.00,0.00,VWS V14.01,2013-03-24 06:09:00,
2013-03-24 02:14:00,28.1,19.6,29.99,SSW,209,0.0,0.0,70,0.00,,CLR,0.00,0.00,VWS V14.01,2013-03-24 06:14:00,
2013-03-24 02:19:00,28.0,19.8,29.98,SSW,209,0.0,0.0,71,0.00,,CLR,0.00,0.00,VWS V14.01,2013-03-24 06:19:00,
2013-03-24 02:24:00,27.7,19.2,29.98,SSW,209,0.0,0.0,70,0.00,,CLR,0.00,0.00,VWS V14.01,2013-03-24 06:24:00,
2013-03-24 02:29:00,27.5,19.4,29.98,SSW,209,0.0,0.0,71,0.00,,CLR,0.00,0.00,VWS V14.01,2013-03-24 06:29:00,
2013-03-24 02:34:00,27.2,19.1,29.98,SSW,209,0.0,0.0,71,0.00,,CLR,0.00,0.00,VWS V14.01,2013-03-24 06:34:00,
2013-03-24 02:39:00,27.1,19.3,29.98,SSW,209,0.0,0.0,72,0.00,,CLR,0.00,0.00,VWS V14.01,2013-03-24 06:39:00,
2013-03-24 02:44:00,27.1,19.3,29.98,SSW,209,0.0,0.0,72,0.00,,CLR,0.00,0.00,VWS V14.01,2013-03-24 06:44:00,
2013-03-24 02:50:00,27.1,19.6,29.98,SSW,209,0.0,0.0,73,0.00,,CLR,0.00,0.00,VWS V14.01,2013-03-24 06:50:00,
2013-03-24 02:55:00,26.9,19.4,29.98,SSW,205,0.0,0.0,73,0.00,,CLR,0.00,0.00,VWS V14.01,2013-03-24 06:55:00,
2013-03-24 03:00:00,26.8,19.3,29.98,SSW,205,0.0,0.0,73,0.00,,CLR,0.00,0.00,VWS V14.01,2013-03-24 07:00:00,
2013-03-24 03:05:00,26.8,19.3,29.98,SSW,205,0.0,0.0,73,0.00,,CLR,0.00,0.00,VWS V14.01,2013-03-24 07:05:00,
2013-03-24 03:10:00,26.8,19.6,29.98,SSW,205,0.0,0.0,74,0.00,,CLR,0.00,0.00,VWS V14.01,2013-03-24 07:10:00,
2013-03-24 03:15:00,26.6,19.4,29.98,SSW,205,0.0,0.0,74,0.00,,CLR,0.00,0.00,VWS V14.01,2013-03-24 07:15:00,
2013-03-24 03:20:00,26.6,19.4,29.98,SSW,205,0.0,0.0,74,0.00,,CLR,0.00,0.00,VWS V14.01,2013-03-24 07:20:00,
2013-03-24 03:25:00,26.6,19.4,29.98,SSW,205,0.0,0.0,74,0.00,,CLR,0.00,0.00,VWS V14.01,2013-03-24 07:25:00,
2013-03-24 03:30:00,26.6,19.4,29.98,SSW,205,0.0,0.0,74,0.00,,CLR,0.00,0.00,VWS V14.01,2013-03-24 07:30:00,
2013-03-24 03:35:00,26.5,19.7,29.99,SSW,205,0.0,0.0,75,0.00,,CLR,0.00,0.00,VWS V14.01,2013-03-24 07:35:00,
2013-03-24 03:40:00,26.3,19.5,29.99,SSW,205,0.0,0.0,75,0.00,,CLR,0.00,0.00,VWS V14.01,2013-03-24 07:40:00,
2013-03-24 03:46:00,26.3,19.5,29.99,SSW,205,0.0,0.0,75,0.00,,CLR,0.00,0.00,VWS V14.01,2013-03-24 07:46:00,
2013-03-24 03:51:00,26.5,19.7,29.99,SSW,205,0.0,0.0,75,0.00,,CLR,0.00,0.00,VWS V14.01,2013-03-24 07:51:00,
2013-03-24 03:56:00,26.5,19.7,29.99,SSW,205,0.0,0.0,75,0.00,,CLR,0.00,0.00,VWS V14.01,2013-03-24 07:56:00,
2013-03-24 04:02:00,26.5,19.7,29.99,SSW,205,0.0,0.0,75,0.00,,CLR,0.00,0.00,VWS V14.01,2013-03-24 08:02:00,
2013-03-24 04:07:00,26.5,20.0,29.99,SSW,205,0.0,0.0,76,0.00,,CLR,0.00,0.00,VWS V14.01,2013-03-24 08:07:00,
2013-03-24 04:12:00,26.5,19.7,29.99,SSW,205,0.0,0.0,75,0.00,,CLR,0.00,0.00,VWS V14.01,2013-03-24 08:12:00,
2013-03-24 04:17:00,26.5,19.7,29.99,SSW,205,0.0,0.0,75,0.00,,CLR,0.00,0.00,VWS V14.01,2013-03-24 08:17:00,
2013-03-24 04:22:00,26.3,19.8,29.99,SSW,205,0.0,0.0,76,0.00,,CLR,0.00,0.00,VWS V14.01,2013-03-24 08:22:00,
2013-03-24 04:27:00,26.3,19.8,29.99,SSW,205,0.0,0.0,76,0.00,,CLR,0.00,0.00,VWS V14.01,2013-03-24 08:27:00,
2013-03-24 04:32:00,26.3,20.1,30.00,SSW,205,0.0,0.0,77,0.00,,CLR,0.00,0.00,VWS V14.01,2013-03-24 08:32:00,
2013-03-24 04:37:00,26.3,20.1,30.00,SSW,205,0.0,0.0,77,0.00,,CLR,0.00,0.00,VWS V14.01,2013-03-24 08:37:00,
2013-03-24 04:43:00,26.5,20.3,30.00,SSW,205,0.0,0.0,77,0.00,,CLR,0.00,0.00,VWS V14.01,2013-03-24 08:43:00,
2013-03-24 04:48:00,26.5,20.3,30.00,SSW,205,0.0,0.0,77,0.00,,CLR,0.00,0.00,VWS V14.01,2013-03-24 08:48:00,
2013-03-24 04:53:00,26.5,20.3,30.00,SSW,205,0.0,0.0,77,0.00,,CLR,0.00,0.00,VWS V14.01,2013-03-24 08:53:00,
2013-03-24 04:58:00,26.5,20.3,30.00,SSW,205,0.0,0.0,77,0.00,,CLR,0.00,0.00,VWS V14.01,2013-03-24 08:58:00,
2013-03-24 05:03:00,26.5,20.6,29.99,SSW,205,0.0,0.0,78,0.00,,CLR,0.00,0.00,VWS V14.01,2013-03-24 09:03:00,
2013-03-24 05:08:00,26.5,20.6,29.99,SSW,205,0.0,2.0,78,0.00,,CLR,0.00,0.00,VWS V14.01,2013-03-24 09:08:00,
2013-03-24 05:13:00,26.5,20.6,29.99,SSW,205,0.0,3.0,78,0.00,,CLR,0.00,0.00,VWS V14.01,2013-03-24 09:13:00,
2013-03-24 05:18:00,26.5,20.6,29.97,SSW,205,0.0,3.0,78,0.00,,CLR,0.00,0.00,VWS V14.01,2013-03-24 09:18:00,
2013-03-24 05:23:00,26.5,20.6,29.97,SSW,205,0.0,0.0,78,0.00,,CLR,0.00,0.00,VWS V14.01,2013-03-24 09:23:00,
2013-03-24 05:28:00,26.5,20.3,29.97,SSW,205,0.0,0.0,77,0.00,,CLR,0.00,0.00,VWS V14.01,2013-03-24 09:28:00,
2013-03-24 05:34:00,26.5,20.3,29.97,SSW,205,0.0,0.0,77,0.00,,CLR,0.00,0.00,VWS V14.01,2013-03-24 09:34:00,
2013-03-24 05:39:00,26.3,20.4,29.97,SSW,205,0.0,0.0,78,0.00,,CLR,0.00,0.00,VWS V14.01,2013-03-24 09:39:00,
2013-03-24 05:44:00,26.2,20.3,29.97,SSW,205,0.0,0.0,78,0.00,,CLR,0.00,0.00,VWS V14.01,2013-03-24 09:44:00,
2013-03-24 05:49:00,26.2,20.3,29.96,SSW,205,0.0,0.0,78,0.00,,CLR,0.00,0.00,VWS V14.01,2013-03-24 09:49:00,
2013-03-24 05:54:00,26.2,20.3,29.96,SSW,205,0.0,0.0,78,0.00,,CLR,0.00,0.00,VWS V14.01,2013-03-24 09:54:00,
2013-03-24 05:59:00,26.2,20.6,29.96,SSW,205,0.0,0.0,79,0.00,,CLR,0.00,0.00,VWS V14.01,2013-03-24 09:59:00,
2013-03-24 06:04:00,26.0,20.4,29.96,SSW,205,0.0,0.0,79,0.00,,CLR,0.00,0.00,VWS V14.01,2013-03-24 10:04:00,
2013-03-24 06:09:00,26.0,20.4,29.96,SSW,205,0.0,0.0,79,0.00,,CLR,0.00,0.00,VWS V14.01,2013-03-24 10:09:00,
2013-03-24 06:15:00,26.2,20.6,29.96,SSW,205,0.0,0.0,79,0.00,,CLR,0.00,0.00,VWS V14.01,2013-03-24 10:15:00,
2013-03-24 06:20:00,26.2,20.6,29.97,SSW,205,0.0,0.0,79,0.00,,CLR,0.00,0.00,VWS V14.01,2013-03-24 10:20:00,
2013-03-24 06:25:00,26.2,20.9,29.97,SSW,205,0.0,0.0,80,0.00,,CLR,0.00,0.00,VWS V14.01,2013-03-24 10:25:00,
2013-03-24 06:30:00,26.2,20.9,29.97,SSW,205,0.0,0.0,80,0.00,,CLR,0.00,0.00,VWS V14.01,2013-03-24 10:30:00,
2013-03-24 06:35:00,26.2,20.9,29.97,SSW,205,0.0,0.0,80,0.00,,CLR,0.00,0.00,VWS V14.01,2013-03-24 10:35:00,
2013-03-24 06:40:00,26.2,20.9,29.97,SSW,205,0.0,0.0,80,0.00,,CLR,0.00,0.00,VWS V14.01,2013-03-24 10:40:00,
2013-03-24 06:45:00,26.0,21.0,29.97,SSW,205,0.0,0.0,81,0.00,,CLR,0.00,0.00,VWS V14.01,2013-03-24 10:45:00,
2013-03-24 06:50:00,26.0,21.0,29.98,SSW,205,0.0,0.0,81,0.00,,CLR,0.00,0.00,VWS V14.01,2013-03-24 10:50:00,
2013-03-24 06:56:00,26.0,21.0,29.98,SSW,205,0.0,0.0,81,0.00,,CLR,0.00,0.00,VWS V14.01,2013-03-24 10:56:00,
2013-03-24 07:01:00,26.0,21.0,29.98,SSW,205,0.0,0.0,81,0.00,,CLR,0.00,0.00,VWS V14.01,2013-03-24 11:01:00,
2013-03-24 07:06:00,26.0,21.0,29.97,SSW,205,0.0,0.0,81,0.00,,CLR,0.00,0.00,VWS V14.01,2013-03-24 11:06:00,
2013-03-24 07:11:00,26.0,21.0,29.97,SSW,205,0.0,0.0,81,0.00,,CLR,0.00,0.00,VWS V14.01,2013-03-24 11:11:00,
2013-03-24 07:16:00,26.0,21.0,29.99,SSW,205,0.0,0.0,81,0.00,,CLR,0.00,0.00,VWS V14.01,2013-03-24 11:16:00,
2013-03-24 07:21:00,25.9,20.9,29.99,SSW,205,0.0,0.0,81,0.00,,CLR,0.00,5.00,VWS V14.01,2013-03-24 11:21:00,
2013-03-24 07:27:00,25.9,20.9,29.99,SSW,205,0.0,0.0,81,0.00,,CLR,0.00,11.00,VWS V14.01,2013-03-24 11:27:00,
2013-03-24 07:32:00,26.0,21.0,29.99,SSW,205,0.0,0.0,81,0.00,,CLR,0.00,14.00,VWS V14.01,2013-03-24 11:32:00,
2013-03-24 07:37:00,26.0,21.0,29.99,SSW,205,0.0,0.0,81,0.00,,CLR,0.00,18.00,VWS V14.01,2013-03-24 11:37:00,
2013-03-24 07:42:00,26.2,21.2,29.99,SSW,205,0.0,0.0,81,0.00,,CLR,0.00,21.00,VWS V14.01,2013-03-24 11:42:00,
2013-03-24 07:47:00,26.3,21.6,29.98,SSW,205,0.0,0.0,82,0.00,,CLR,0.00,26.00,VWS V14.01,2013-03-24 11:47:00,
2013-03-24 07:52:00,26.3,21.6,29.98,SSW,205,0.0,0.0,82,0.00,,CLR,0.00,32.00,VWS V14.01,2013-03-24 11:52:00,
2013-03-24 07:57:00,26.5,21.8,29.98,SSW,205,0.0,0.0,82,0.00,,CLR,0.00,44.00,VWS V14.01,2013-03-24 11:57:00,
2013-03-24 08:02:00,26.6,21.9,29.97,SSW,205,0.0,0.0,82,0.00,,CLR,0.00,46.00,VWS V14.01,2013-03-24 12:02:00,
2013-03-24 08:07:00,26.6,21.6,29.97,SE,136,0.0,1.0,81,0.00,,CLR,0.00,49.00,VWS V14.01,2013-03-24 12:07:00,
2013-03-24 08:12:00,26.8,21.8,29.97,SE,136,0.0,0.0,81,0.00,,CLR,0.00,63.00,VWS V14.01,2013-03-24 12:12:00,
2013-03-24 08:17:00,26.9,21.9,29.97,SE,136,0.0,0.0,81,0.00,,CLR,0.00,79.00,VWS V14.01,2013-03-24 12:17:00,
2013-03-24 08:23:00,27.2,22.1,29.97,SE,136,0.0,0.0,81,0.00,,CLR,0.00,79.00,VWS V14.01,2013-03-24 12:23:00,
2013-03-24 08:28:00,27.4,22.4,29.97,SE,136,0.0,0.0,81,0.00,,CLR,0.00,84.00,VWS V14.01,2013-03-24 12:28:00,
2013-03-24 08:33:00,27.5,22.5,29.96,SE,136,0.0,0.0,81,0.00,,CLR,0.00,91.00,VWS V14.01,2013-03-24 12:33:00,
2013-03-24 08:38:00,27.7,22.6,29.96,SE,136,0.0,0.0,81,0.00,,CLR,0.00,99.00,VWS V14.01,2013-03-24 12:38:00,
2013-03-24 08:43:00,28.0,22.9,29.96,SE,136,0.0,0.0,81,0.00,,CLR,0.00,109.00,VWS V14.01,2013-03-24 12:43:00,
2013-03-24 08:48:00,28.1,22.7,29.95,SE,136,0.0,2.0,80,0.00,,CLR,0.00,118.00,VWS V14.01,2013-03-24 12:48:00,
2013-03-24 08:53:00,28.3,22.9,29.95,SE,136,0.0,0.0,80,0.00,,CLR,0.00,123.00,VWS V14.01,2013-03-24 12:53:00,
2013-03-24 08:58:00,28.4,23.0,29.95,SE,136,0.0,1.0,80,0.00,,CLR,0.00,125.00,VWS V14.01,2013-03-24 12:58:00,
2013-03-24 09:03:00,28.4,23.3,29.95,SE,136,0.0,0.0,81,0.00,,CLR,0.00,128.00,VWS V14.01,2013-03-24 13:03:00,
2013-03-24 09:08:00,28.5,23.4,29.95,SE,136,0.0,0.0,81,0.00,,CLR,0.00,141.00,VWS V14.01,2013-03-24 13:08:00,
2013-03-24 09:13:00,28.7,23.6,29.95,SE,136,0.0,0.0,81,0.00,,CLR,0.00,141.00,VWS V14.01,2013-03-24 13:13:00,
2013-03-24 09:18:00,28.8,23.4,29.95,SE,136,0.0,0.0,80,0.00,,CLR,0.00,135.00,VWS V14.01,2013-03-24 13:18:00,
2013-03-24 09:23:00,29.1,23.7,29.95,East,92,2.0,2.0,80,0.00,,CLR,0.00,150.00,VWS V14.01,2013-03-24 13:23:00,
2013-03-24 09:29:00,29.3,23.6,29.95,SE,137,0.0,3.0,79,0.00,,CLR,0.00,143.00,VWS V14.01,2013-03-24 13:29:00,
2013-03-24 09:34:00,29.4,23.4,29.94,SE,137,0.0,0.0,78,0.00,,CLR,0.00,153.00,VWS V14.01,2013-03-24 13:34:00,
2013-03-24 09:39:00,29.7,23.4,29.94,SE,137,0.0,0.0,77,0.00,,CLR,0.00,165.00,VWS V14.01,2013-03-24 13:39:00,
2013-03-24 09:44:00,30.0,23.4,29.94,NNE,31,0.0,0.0,76,0.00,,CLR,0.00,179.00,VWS V14.01,2013-03-24 13:44:00,
2013-03-24 09:49:00,30.3,23.3,29.93,NE,45,0.0,0.0,75,0.00,,CLR,0.00,187.00,VWS V14.01,2013-03-24 13:49:00,
2013-03-24 09:54:00,30.8,23.5,29.93,NE,45,0.0,0.0,74,0.00,,CLR,0.00,174.00,VWS V14.01,2013-03-24 13:54:00,
2013-03-24 09:59:00,31.2,23.6,29.93,NE,45,0.0,1.0,73,0.00,,CLR,0.00,188.00,VWS V14.01,2013-03-24 13:59:00,
2013-03-24 10:04:00,31.4,23.1,29.92,NE,48,0.0,0.0,71,0.00,,CLR,0.00,197.00,VWS V14.01,2013-03-24 14:04:00,
2013-03-24 10:09:00,31.5,23.2,29.92,NE,48,0.0,1.0,71,0.00,,CLR,0.00,197.00,VWS V14.01,2013-03-24 14:09:00,
2013-03-24 10:15:00,31.8,23.5,29.92,NE,48,0.0,0.0,71,0.00,,CLR,0.00,201.00,VWS V14.01,2013-03-24 14:15:00,
2013-03-24 10:20:00,31.9,23.2,29.91,NE,48,0.0,0.0,70,0.00,,CLR,0.00,199.00,VWS V14.01,2013-03-24 14:20:00,
2013-03-24 10:25:00,32.2,23.9,29.91,NE,48,0.0,0.0,71,0.00,,CLR,0.00,206.00,VWS V14.01,2013-03-24 14:25:00,
2013-03-24 10:30:00,32.4,23.7,29.91,NE,48,0.0,1.0,70,0.00,,CLR,0.00,216.00,VWS V14.01,2013-03-24 14:30:00,
2013-03-24 10:35:00,32.7,23.7,29.91,NNE,20,0.0,1.0,69,0.00,,CLR,0.00,227.00,VWS V14.01,2013-03-24 14:35:00,
2013-03-24 10:40:00,32.7,23.3,29.91,NNE,20,0.0,1.0,68,0.00,,CLR,0.00,211.00,VWS V14.01,2013-03-24 14:40:00,
2013-03-24 10:45:00,32.8,23.4,29.91,NNE,20,0.0,0.0,68,0.00,,CLR,0.00,209.00,VWS V14.01,2013-03-24 14:45:00,
2013-03-24 10:50:00,33.3,24.2,29.90,NNE,20,0.0,1.0,69,0.00,,CLR,0.00,208.00,VWS V14.01,2013-03-24 14:50:00,
2013-03-24 10:55:00,33.6,24.5,29.90,NNE,20,0.0,0.0,69,0.00,,CLR,0.00,208.00,VWS V14.01,2013-03-24 14:55:00,
2013-03-24 11:00:00,33.7,23.9,29.90,NNE,20,0.0,2.0,67,0.00,,CLR,0.00,211.00,VWS V14.01,2013-03-24 15:00:00,
2013-03-24 11:05:00,33.7,23.9,29.89,NNE,20,0.0,0.0,67,0.00,,CLR,0.00,213.00,VWS V14.01,2013-03-24 15:05:00,
2013-03-24 11:10:00,33.7,23.6,29.89,NNE,20,0.0,1.0,66,0.00,,CLR,0.00,216.00,VWS V14.01,2013-03-24 15:10:00,
2013-03-24 11:16:00,33.7,23.6,29.89,NNE,20,0.0,1.0,66,0.00,,CLR,0.00,218.00,VWS V14.01,2013-03-24 15:16:00,
2013-03-24 11:21:00,34.0,23.9,29.89,NNE,20,0.0,2.0,66,0.00,,CLR,0.00,213.00,VWS V14.01,2013-03-24 15:21:00,
2013-03-24 11:26:00,34.3,24.1,29.89,NNE,20,0.0,2.0,66,0.00,,CLR,0.00,208.00,VWS V14.01,2013-03-24 15:26:00,
2013-03-24 11:31:00,34.3,23.8,29.89,WNW,289,0.0,2.0,65,0.00,,CLR,0.00,208.00,VWS V14.01,2013-03-24 15:31:00,
2013-03-24 11:36:00,34.6,24.4,29.89,WNW,289,0.0,2.0,66,0.00,,CLR,0.00,223.00,VWS V14.01,2013-03-24 15:36:00,
2013-03-24 11:41:00,34.9,24.7,29.89,WNW,289,0.0,2.0,66,0.00,,CLR,0.00,236.00,VWS V14.01,2013-03-24 15:41:00,
2013-03-24 11:46:00,34.9,24.0,29.88,WNW,289,0.0,2.0,64,0.00,,CLR,0.00,239.00,VWS V14.01,2013-03-24 15:46:00,
2013-03-24 11:51:00,35.2,24.3,29.88,WNW,301,1.0,2.0,64,0.00,,CLR,0.00,243.00,VWS V14.01,2013-03-24 15:51:00,
2013-03-24 11:57:00,35.5,24.5,29.88,WNW,301,0.0,2.0,64,0.00,,CLR,0.00,243.00,VWS V14.01,2013-03-24 15:57:00,
2013-03-24 12:02:00,35.6,23.9,29.86,WNW,301,0.0,2.0,62,0.00,,CLR,0.00,250.00,VWS V14.01,2013-03-24 16:02:00,
2013-03-24 12:07:00,35.8,23.3,29.86,WNW,301,0.0,0.0,60,0.00,,CLR,0.00,253.00,VWS V14.01,2013-03-24 16:07:00,
2013-03-24 12:12:00,36.0,23.5,29.86,ENE,61,2.0,3.0,60,0.00,,CLR,0.00,264.00,VWS V14.01,2013-03-24 16:12:00,
2013-03-24 12:17:00,36.2,23.7,29.84,ENE,61,0.0,3.0,60,0.00,,CLR,0.00,280.00,VWS V14.01,2013-03-24 16:17:00,
2013-03-24 12:22:00,36.3,23.0,29.84,ENE,61,0.0,0.0,58,0.00,,CLR,0.00,282.00,VWS V14.01,2013-03-24 16:22:00,
2013-03-24 12:27:00,36.5,23.1,29.84,ENE,61,1.0,2.0,58,0.00,,CLR,0.00,273.00,VWS V14.01,2013-03-24 16:27:00,
2013-03-24 12:32:00,36.6,23.2,29.83,NE,52,1.0,1.0,58,0.00,,CLR,0.00,274.00,VWS V14.01,2013-03-24 16:32:00,
2013-03-24 12:37:00,36.8,23.4,29.83,NE,52,0.0,2.0,58,0.00,,CLR,0.00,262.00,VWS V14.01,2013-03-24 16:37:00,
2013-03-24 12:42:00,37.0,23.6,29.83,NE,52,0.0,0.0,58,0.00,,CLR,0.00,253.00,VWS V14.01,2013-03-24 16:42:00,
2013-03-24 12:47:00,37.3,23.1,29.83,NNE,16,0.0,3.0,56,0.00,,CLR,0.00,243.00,VWS V14.01,2013-03-24 16:47:00,
2013-03-24 12:53:00,37.3,22.6,29.83,NE,47,1.0,2.0,55,0.00,,CLR,0.00,239.00,VWS V14.01,2013-03-24 16:53:00,
2013-03-24 12:58:00,37.3,22.6,29.83,ENE,75,3.0,3.0,55,0.00,,CLR,0.00,230.00,VWS V14.01,2013-03-24 16:58:00,
2013-03-24 13:03:00,37.5,22.4,29.81,ENE,75,2.0,2.0,54,0.00,,CLR,0.00,216.00,VWS V14.01,2013-03-24 17:03:00,
2013-03-24 13:08:00,37.6,22.0,29.81,East,93,0.0,3.0,53,0.00,,CLR,0.00,222.00,VWS V14.01,2013-03-24 17:08:00,
2013-03-24 13:13:00,37.6,21.6,29.81,East,97,1.0,3.0,52,0.00,,CLR,0.00,229.00,VWS V14.01,2013-03-24 17:13:00,
2013-03-24 13:18:00,37.8,21.3,29.79,East,92,0.0,3.0,51,0.00,,CLR,0.00,245.00,VWS V14.01,2013-03-24 17:18:00,
2013-03-24 13:23:00,37.8,21.3,29.79,NNE,31,0.0,2.0,51,0.00,,CLR,0.00,280.00,VWS V14.01,2013-03-24 17:23:00,
2013-03-24 13:28:00,38.1,22.0,29.79,NNE,31,1.0,2.0,52,0.00,,CLR,0.00,318.00,VWS V14.01,2013-03-24 17:28:00,
2013-03-24 13:33:00,38.3,21.8,29.78,East,93,2.0,2.0,51,0.00,,CLR,0.00,362.00,VWS V14.01,2013-03-24 17:33:00,
2013-03-24 13:39:00,38.6,21.6,29.78,ENE,71,1.0,3.0,50,0.00,,CLR,0.00,377.00,VWS V14.01,2013-03-24 17:39:00,
2013-03-24 13:44:00,38.6,21.1,29.78,North,0,1.0,2.0,49,0.00,,CLR,0.00,266.00,VWS V14.01,2013-03-24 17:44:00,
2013-03-24 13:49:00,39.1,21.6,29.77,NNE,21,2.0,3.0,49,0.00,,CLR,0.00,329.00,VWS V14.01,2013-03-24 17:49:00,
2013-03-24 13:54:00,39.2,22.1,29.77,NE,40,2.0,3.0,50,0.00,,CLR,0.00,385.00,VWS V14.01,2013-03-24 17:54:00,
2013-03-24 13:59:00,39.5,21.5,29.77,NW,318,2.0,4.0,48,0.00,,CLR,0.00,368.00,VWS V14.01,2013-03-24 17:59:00,
2013-03-24 14:04:00,39.6,21.5,29.75,NW,319,1.0,2.0,48,0.00,,CLR,0.00,250.00,VWS V14.01,2013-03-24 18:04:00,
2013-03-24 14:09:00,39.6,20.5,29.75,NE,42,1.0,4.0,46,0.00,,CLR,0.00,222.00,VWS V14.01,2013-03-24 18:09:00,
2013-03-24 14:14:00,39.6,20.0,29.75,NE,40,1.0,1.0,45,0.00,,CLR,0.00,204.00,VWS V14.01,2013-03-24 18:14:00,
2013-03-24 14:19:00,39.6,21.5,29.75,NE,40,0.0,2.0,48,0.00,,CLR,0.00,195.00,VWS V14.01,2013-03-24 18:19:00,
2013-03-24 14:24:00,39.6,21.0,29.75,WNW,298,3.0,3.0,47,0.00,,CLR,0.00,169.00,VWS V14.01,2013-03-24 18:24:00,
2013-03-24 14:29:00,39.6,19.5,29.75,WNW,299,0.0,3.0,44,0.00,,CLR,0.00,144.00,VWS V14.01,2013-03-24 18:29:00,
2013-03-24 14:34:00,39.6,21.0,29.75,WNW,301,2.0,2.0,47,0.00,,CLR,0.00,102.00,VWS V14.01,2013-03-24 18:34:00,
2013-03-24 14:39:00,39.5,20.5,29.75,WNW,301,1.0,3.0,46,0.00,,CLR,0.00,88.00,VWS V14.01,2013-03-24 18:39:00,
2013-03-24 14:44:00,39.5,19.9,29.75,WNW,301,0.0,1.0,45,0.00,,CLR,0.00,70.00,VWS V14.01,2013-03-24 18:44:00,
2013-03-24 14:49:00,39.3,20.3,29.75,WNW,289,2.0,4.0,46,0.00,,CLR,0.00,70.00,VWS V14.01,2013-03-24 18:49:00,
2013-03-24 14:55:00,39.1,21.6,29.75,WNW,302,0.0,7.0,49,0.00,,CLR,0.00,69.00,VWS V14.01,2013-03-24 18:55:00,
2013-03-24 15:00:00,38.9,23.2,29.75,SSW,198,5.0,7.0,53,0.00,,CLR,0.00,67.00,VWS V14.01,2013-03-24 19:00:00,
2013-03-24 15:05:00,38.6,23.8,29.74,SSW,209,0.0,3.0,55,0.00,,CLR,0.00,67.00,VWS V14.01,2013-03-24 19:05:00,
2013-03-24 15:10:00,38.2,23.9,29.74,SW,223,0.0,5.0,56,0.00,,CLR,0.00,60.00,VWS V14.01,2013-03-24 19:10:00,
2013-03-24 15:15:00,38.2,23.9,29.74,South,184,0.0,2.0,56,0.00,,CLR,0.00,55.00,VWS V14.01,2013-03-24 19:15:00,
2013-03-24 15:20:00,38.2,24.3,29.75,West,271,3.0,3.0,57,0.00,,CLR,0.00,49.00,VWS V14.01,2013-03-24 19:20:00,
2013-03-24 15:25:00,37.9,24.9,29.75,SSW,195,3.0,3.0,59,0.00,,CLR,0.00,42.00,VWS V14.01,2013-03-24 19:25:00,
2013-03-24 15:30:00,37.6,25.4,29.75,SSW,212,0.0,3.0,61,0.00,,CLR,0.00,37.00,VWS V14.01,2013-03-24 19:30:00,
2013-03-24 15:35:00,37.3,26.3,29.75,South,182,0.0,2.0,64,0.00,,CLR,0.00,33.00,VWS V14.01,2013-03-24 19:35:00,
2013-03-24 15:40:00,36.3,27.5,29.75,West,263,1.0,8.0,70,0.00,,CLR,0.00,37.00,VWS V14.01,2013-03-24 19:40:00,
2013-03-24 15:45:00,35.3,28.5,29.75,WSW,258,3.0,7.0,76,0.00,,CLR,0.00,30.00,VWS V14.01,2013-03-24 19:45:00,
2013-03-24 15:50:00,34.5,28.7,29.76,WSW,256,2.0,7.0,79,0.00,,CLR,0.00,26.00,VWS V14.01,2013-03-24 19:50:00,
2013-03-24 15:57:00,33.7,28.5,29.76,West,277,0.0,4.0,81,0.00,,CLR,0.00,25.00,VWS V14.01,2013-03-24 19:57:00,
2013-03-24 16:02:00,33.3,29.0,29.75,West,277,0.0,4.0,84,0.00,,CLR,0.00,23.00,VWS V14.01,2013-03-24 20:02:00,
2013-03-24 16:07:00,33.1,29.1,29.75,West,277,0.0,0.0,85,0.00,,CLR,0.00,19.00,VWS V14.01,2013-03-24 20:07:00,
2013-03-24 16:12:00,32.8,29.1,29.75,West,277,0.0,0.0,86,0.00,,CLR,0.00,18.00,VWS V14.01,2013-03-24 20:12:00,
2013-03-24 16:17:00,32.8,29.4,29.74,West,277,0.0,0.0,87,0.00,,CLR,0.00,16.00,VWS V14.01,2013-03-24 20:17:00,
2013-03-24 16:22:00,32.7,29.5,29.74,West,277,0.0,0.0,88,0.00,,CLR,0.00,16.00,VWS V14.01,2013-03-24 20:22:00,
2013-03-24 16:27:00,32.7,29.5,29.74,West,277,0.0,0.0,88,0.00,,CLR,0.00,18.00,VWS V14.01,2013-03-24 20:27:00,
2013-03-24 16:32:00,32.5,29.4,29.73,West,277,0.0,0.0,88,0.00,,CLR,0.00,18.00,VWS V14.01,2013-03-24 20:32:00,
2013-03-24 16:37:00,32.5,29.4,29.73,West,277,0.0,0.0,88,0.00,,CLR,0.00,19.00,VWS V14.01,2013-03-24 20:37:00,
2013-03-24 16:42:00,32.5,29.6,29.73,West,277,0.0,0.0,89,0.00,,CLR,0.00,21.00,VWS V14.01,2013-03-24 20:42:00,
2013-03-24 16:47:00,32.5,29.6,29.72,West,277,0.0,0.0,89,0.00,,CLR,0.00,21.00,VWS V14.01,2013-03-24 20:47:00,
2013-03-24 16:52:00,32.5,29.6,29.72,West,277,0.0,0.0,89,0.00,,CLR,0.00,16.00,VWS V14.01,2013-03-24 20:52:00,
2013-03-24 16:57:00,32.5,29.6,29.72,West,277,0.0,0.0,89,0.00,,CLR,0.00,14.00,VWS V14.01,2013-03-24 20:57:00,
2013-03-24 17:02:00,32.4,29.8,29.73,West,277,0.0,0.0,90,0.00,,CLR,0.00,14.00,VWS V14.01,2013-03-24 21:02:00,
2013-03-24 17:08:00,32.4,29.8,29.73,West,277,0.0,0.0,90,0.00,,CLR,0.00,16.00,VWS V14.01,2013-03-24 21:08:00,
2013-03-24 17:13:00,32.4,30.1,29.73,West,277,0.0,0.0,91,0.00,,CLR,0.00,18.00,VWS V14.01,2013-03-24 21:13:00,
2013-03-24 17:18:00,32.2,29.9,29.73,West,277,0.0,0.0,91,0.00,,CLR,0.00,16.00,VWS V14.01,2013-03-24 21:18:00,
2013-03-24 17:23:00,32.4,30.1,29.73,West,277,0.0,0.0,91,0.00,,CLR,0.00,16.00,VWS V14.01,2013-03-24 21:23:00,
2013-03-24 17:28:00,32.4,30.1,29.73,West,277,0.0,0.0,91,0.00,,CLR,0.00,14.00,VWS V14.01,2013-03-24 21:28:00,
2013-03-24 17:33:00,32.4,30.3,29.73,West,277,0.0,0.0,92,0.00,,CLR,0.00,16.00,VWS V14.01,2013-03-24 21:33:00,
2013-03-24 17:38:00,32.4,30.3,29.73,West,277,0.0,0.0,92,0.00,,CLR,0.00,16.00,VWS V14.01,2013-03-24 21:38:00,
2013-03-24 17:43:00,32.4,30.3,29.73,West,277,0.0,0.0,92,0.00,,CLR,0.00,16.00,VWS V14.01,2013-03-24 21:43:00,
2013-03-24 17:48:00,32.4,30.3,29.73,West,277,0.0,0.0,92,0.00,,CLR,0.00,16.00,VWS V14.01,2013-03-24 21:48:00,
2013-03-24 17:53:00,32.2,30.1,29.73,West,277,0.0,0.0,92,0.00,,CLR,0.00,14.00,VWS V14.01,2013-03-24 21:53:00,
2013-03-24 17:59:00,32.2,30.1,29.73,West,277,0.0,0.0,92,0.00,,CLR,0.00,12.00,VWS V14.01,2013-03-24 21:59:00,
2013-03-24 18:04:00,32.1,30.0,29.72,West,277,0.0,0.0,92,0.00,,CLR,0.00,14.00,VWS V14.01,2013-03-24 22:04:00,
2013-03-24 18:09:00,31.9,29.8,29.72,West,277,0.0,0.0,92,0.00,,CLR,0.00,14.00,VWS V14.01,2013-03-24 22:09:00,
2013-03-24 18:14:00,31.9,29.8,29.72,NNE,17,0.0,0.0,92,0.00,,CLR,0.00,12.00,VWS V14.01,2013-03-24 22:14:00,
2013-03-24 18:19:00,31.8,30.0,29.72,NE,48,0.0,0.0,93,0.00,,CLR,0.00,11.00,VWS V14.01,2013-03-24 22:19:00,
2013-03-24 18:24:00,31.7,29.9,29.72,NE,48,0.0,0.0,93,0.00,,CLR,0.00,9.00,VWS V14.01,2013-03-24 22:24:00,
2013-03-24 18:29:00,31.7,29.9,29.72,NE,48,0.0,0.0,93,0.00,,CLR,0.00,7.00,VWS V14.01,2013-03-24 22:29:00,
2013-03-24 18:34:00,31.7,29.9,29.71,NE,48,0.0,0.0,93,0.00,,CLR,0.00,7.00,VWS V14.01,2013-03-24 22:34:00,
2013-03-24 18:39:00,31.5,29.7,29.71,NE,48,0.0,0.0,93,0.00,,CLR,0.00,7.00,VWS V14.01,2013-03-24 22:39:00,
2013-03-24 18:44:00,31.5,30.0,29.71,NE,48,0.0,0.0,94,0.00,,CLR,0.00,5.00,VWS V14.01,2013-03-24 22:44:00,
2013-03-24 18:49:00,31.5,30.0,29.71,NE,48,0.0,0.0,94,0.00,,CLR,0.00,5.00,VWS V14.01,2013-03-24 22:49:00,
2013-03-24 18:54:00,31.4,29.9,29.71,ENE,58,0.0,0.0,94,0.00,,CLR,0.00,7.00,VWS V14.01,2013-03-24 22:54:00,
2013-03-24 19:00:00,31.4,29.9,29.71,ENE,58,0.0,0.0,94,0.00,,CLR,0.00,5.00,VWS V14.01,2013-03-24 23:00:00,
2013-03-24 19:05:00,31.4,29.9,29.71,ENE,58,0.0,0.0,94,0.00,,CLR,0.00,5.00,VWS V14.01,2013-03-24 23:05:00,
2013-03-24 19:10:00,31.2,29.7,29.71,ENE,58,0.0,0.0,94,0.00,,CLR,0.00,0.00,VWS V14.01,2013-03-24 23:10:00,
2013-03-24 19:15:00,31.2,29.9,29.71,ENE,58,0.0,0.0,95,0.00,,CLR,0.00,0.00,VWS V14.01,2013-03-24 23:15:00,
2013-03-24 19:20:00,31.2,29.9,29.71,ENE,58,0.0,0.0,95,0.00,,CLR,0.00,0.00,VWS V14.01,2013-03-24 23:20:00,
2013-03-24 19:25:00,31.2,29.9,29.71,ENE,58,0.0,0.0,95,0.00,,CLR,0.00,0.00,VWS V14.01,2013-03-24 23:25:00,
2013-03-24 19:30:00,31.2,29.9,29.71,ENE,58,0.0,0.0,95,0.00,,CLR,0.00,0.00,VWS V14.01,2013-03-24 23:30:00,
2013-03-24 19:35:00,31.2,29.9,29.70,ENE,58,0.0,0.0,95,0.00,,CLR,0.00,0.00,VWS V14.01,2013-03-24 23:35:00,
2013-03-24 19:40:00,31.2,29.9,29.70,ENE,58,0.0,0.0,95,0.00,,CLR,0.00,0.00,VWS V14.01,2013-03-24 23:40:00,
2013-03-24 19:45:00,31.2,29.9,29.70,ENE,58,0.0,0.0,95,0.00,,CLR,0.00,0.00,VWS V14.01,2013-03-24 23:45:00,
2013-03-24 19:51:00,31.2,29.9,29.71,ENE,58,0.0,0.0,95,0.00,,CLR,0.00,0.00,VWS V14.01,2013-03-24 23:51:00,
2013-03-24 19:56:00,31.2,30.2,29.71,ENE,58,0.0,0.0,96,0.00,,CLR,0.00,0.00,VWS V14.01,2013-03-24 23:56:00,
2013-03-24 20:01:00,31.2,30.2,29.70,ENE,58,0.0,0.0,96,0.00,,CLR,0.00,0.00,VWS V14.01,2013-03-25 00:01:00,
2013-03-24 20:06:00,31.1,30.1,29.70,ESE,121,0.0,0.0,96,0.00,,CLR,0.00,0.00,VWS V14.01,2013-03-25 00:06:00,
2013-03-24 20:11:00,31.1,30.1,29.70,ESE,107,0.0,0.0,96,0.00,,CLR,0.00,0.00,VWS V14.01,2013-03-25 00:11:00,
2013-03-24 20:17:00,31.1,30.1,29.68,ESE,106,0.0,0.0,96,0.00,,CLR,0.00,0.00,VWS V14.01,2013-03-25 00:17:00,
2013-03-24 20:22:00,30.9,29.9,29.68,East,96,0.0,0.0,96,0.00,,CLR,0.00,0.00,VWS V14.01,2013-03-25 00:22:00,
2013-03-24 20:27:00,30.9,29.9,29.68,East,95,0.0,0.0,96,0.00,,CLR,0.00,0.00,VWS V14.01,2013-03-25 00:27:00,
2013-03-24 20:32:00,30.9,29.9,29.68,NNE,31,0.0,0.0,96,0.00,,CLR,0.00,0.00,VWS V14.01,2013-03-25 00:32:00,
2013-03-24 20:37:00,30.9,29.9,29.68,ENE,61,0.0,0.0,96,0.00,,CLR,0.00,0.00,VWS V14.01,2013-03-25 00:37:00,
2013-03-24 20:42:00,30.9,29.9,29.68,ENE,65,0.0,0.0,96,0.00,,CLR,0.00,0.00,VWS V14.01,2013-03-25 00:42:00,
2013-03-24 20:47:00,30.9,29.9,29.68,ENE,69,0.0,0.0,96,0.00,,CLR,0.00,0.00,VWS V14.01,2013-03-25 00:47:00,
2013-03-24 20:53:00,30.9,29.9,29.68,ENE,75,0.0,0.0,96,0.00,,CLR,0.00,0.00,VWS V14.01,2013-03-25 00:53:00,
2013-03-24 20:58:00,30.9,29.9,29.68,East,93,0.0,0.0,96,0.00,,CLR,0.00,0.00,VWS V14.01,2013-03-25 00:58:00,
2013-03-24 21:03:00,30.9,29.9,29.68,East,100,0.0,0.0,96,0.00,,CLR,0.00,0.00,VWS V14.01,2013-03-25 01:03:00,
2013-03-24 21:08:00,30.9,29.9,29.68,ENE,72,0.0,0.0,96,0.00,,CLR,0.00,0.00,VWS V14.01,2013-03-25 01:08:00,
2013-03-24 21:13:00,30.9,29.9,29.68,ENE,61,0.0,0.0,96,0.00,,CLR,0.00,0.00,VWS V14.01,2013-03-25 01:13:00,
2013-03-24 21:18:00,30.9,29.9,29.69,East,82,0.0,0.0,96,0.00,,CLR,0.00,0.00,VWS V14.01,2013-03-25 01:18:00,
2013-03-24 21:23:00,30.9,29.9,29.69,East,82,0.0,0.0,96,0.00,,CLR,0.00,0.00,VWS V14.01,2013-03-25 01:23:00,
2013-03-24 21:28:00,30.9,29.9,29.69,ESE,112,0.0,0.0,96,0.00,,CLR,0.00,0.00,VWS V14.01,2013-03-25 01:28:00,
2013-03-24 21:33:00,30.9,29.9,29.69,East,83,0.0,0.0,96,0.00,,CLR,0.00,0.00,VWS V14.01,2013-03-25 01:33:00,
2013-03-24 21:38:00,30.9,29.9,29.69,East,79,0.0,0.0,96,0.00,,CLR,0.00,0.00,VWS V14.01,2013-03-25 01:38:00,
2013-03-24 21:43:00,30.9,29.9,29.69,East,85,0.0,0.0,96,0.00,,CLR,0.00,0.00,VWS V14.01,2013-03-25 01:43:00,
2013-03-24 21:48:00,30.8,30.0,29.68,ENE,75,0.0,0.0,97,0.00,,CLR,0.00,0.00,VWS V14.01,2013-03-25 01:48:00,
2013-03-24 21:53:00,30.8,30.0,29.68,ENE,61,0.0,0.0,97,0.00,,CLR,0.00,0.00,VWS V14.01,2013-03-25 01:53:00,
2013-03-24 21:58:00,30.8,30.0,29.68,ENE,61,0.0,0.0,97,0.00,,CLR,0.00,0.00,VWS V14.01,2013-03-25 01:58:00,
2013-03-24 22:04:00,30.8,30.0,29.68,ENE,64,0.0,0.0,97,0.00,,CLR,0.00,0.00,VWS V14.01,2013-03-25 02:04:00,
2013-03-24 22:09:00,30.8,30.0,29.68,ENE,65,0.0,0.0,97,0.00,,CLR,0.00,0.00,VWS V14.01,2013-03-25 02:09:00,
2013-03-24 22:14:00,30.8,30.0,29.68,ENE,68,0.0,0.0,97,0.00,,CLR,0.00,0.00,VWS V14.01,2013-03-25 02:14:00,
2013-03-24 22:19:00,30.8,30.0,29.67,ENE,68,0.0,0.0,97,0.00,,CLR,0.00,0.00,VWS V14.01,2013-03-25 02:19:00,
2013-03-24 22:24:00,30.8,30.0,29.67,ENE,68,0.0,0.0,97,0.00,,CLR,0.00,0.00,VWS V14.01,2013-03-25 02:24:00,
2013-03-24 22:29:00,30.8,30.0,29.67,ENE,68,0.0,0.0,97,0.00,,CLR,0.00,0.00,VWS V14.01,2013-03-25 02:29:00,
2013-03-24 22:34:00,30.6,29.9,29.66,ENE,68,0.0,0.0,97,0.00,,CLR,0.00,0.00,VWS V14.01,2013-03-25 02:34:00,
2013-03-24 22:39:00,30.6,29.9,29.66,ENE,62,0.0,0.0,97,0.00,,CLR,0.00,0.00,VWS V14.01,2013-03-25 02:39:00,
2013-03-24 22:44:00,30.6,29.9,29.66,ENE,62,0.0,0.0,97,0.00,,CLR,0.00,0.00,VWS V14.01,2013-03-25 02:44:00,
2013-03-24 22:49:00,30.5,29.8,29.65,ENE,62,0.0,0.0,97,0.00,,CLR,0.00,0.00,VWS V14.01,2013-03-25 02:49:00,
2013-03-24 22:54:00,30.5,29.8,29.65,ENE,62,0.0,0.0,97,0.00,,CLR,0.00,0.00,VWS V14.01,2013-03-25 02:54:00,
2013-03-24 23:00:00,30.5,29.8,29.65,ENE,62,0.0,0.0,97,0.00,,CLR,0.00,0.00,VWS V14.01,2013-03-25 03:00:00,
2013-03-24 23:05:00,30.5,29.8,29.64,ENE,62,0.0,0.0,97,0.00,,CLR,0.00,0.00,VWS V14.01,2013-03-25 03:05:00,
2013-03-24 23:10:00,30.5,29.8,29.64,ENE,62,0.0,0.0,97,0.00,,CLR,0.00,0.00,VWS V14.01,2013-03-25 03:10:00,
2013-03-24 23:15:00,30.5,29.8,29.64,ENE,62,0.0,0.0,97,0.00,,CLR,0.00,0.00,VWS V14.01,2013-03-25 03:15:00,
2013-03-24 23:20:00,30.3,29.5,29.64,East,88,0.0,0.0,97,0.00,,CLR,0.00,0.00,VWS V14.01,2013-03-25 03:20:00,
2013-03-24 23:25:00,30.3,29.5,29.64,East,79,0.0,0.0,97,0.00,,CLR,0.00,0.00,VWS V14.01,2013-03-25 03:25:00,
2013-03-24 23:30:00,30.3,29.5,29.64,East,79,0.0,0.0,97,0.00,,CLR,0.00,0.00,VWS V14.01,2013-03-25 03:30:00,
2013-03-24 23:35:00,30.3,29.5,29.63,ENE,68,0.0,0.0,97,0.00,,CLR,0.00,0.00,VWS V14.01,2013-03-25 03:35:00,
2013-03-24 23:40:00,30.3,29.5,29.63,ENE,68,0.0,0.0,97,0.00,,CLR,0.00,0.00,VWS V14.01,2013-03-25 03:40:00,
2013-03-24 23:45:00,30.3,29.5,29.63,ENE,69,0.0,0.0,97,0.00,,CLR,0.00,0.00,VWS V14.01,2013-03-25 03:45:00,
2013-03-24 23:50:00,30.3,29.5,29.61,ENE,62,0.0,0.0,97,0.00,,CLR,0.00,0.00,VWS V14.01,2013-03-25 03:50:00,
2013-03-24 23:56:00,30.3,29.5,29.61,NE,44,0.0,0.0,97,0.00,,CLR,0.00,0.00,VWS V14.01,2013-03-25 03:56:00,